Home   Weather   Hartberg   Past weeks

Flag for Austria Past Weather in Hartberg, Styria, Austria — Yesterday and Last 2 Weeks

Now
25 °F

Passing clouds.


Feels Like: 25 °F
Forecast: 33 / 47 °F
Wind: No wind

Location: Graz-Thalerhof-Flughafen

Current Time: Dec 11, 2016 at 3:36:26 am

Latest Report: Dec 11, 2016 at 2:50 am


Visibility: 4 mi

Pressure: 30.12 "Hg

Humidity: 93%

Dew Point: 23 °F

Location of HartbergLocation

Past Weather in Hartberg — Graph

°F

Hartberg Temperature Yesterday

Maximum temperature yesterday: 50 °F (at 1:20 pm)
Minimum temperature yesterday: 21 °F (at 4:50 am)
Average temperature yesterday: 32 °F

High & Low Weather Summary for the Past Weeks

 TemperatureHumidityPressure
High54 °F (Dec 2, 11:20 am)100% (Nov 26, 2:20 am)30.66 "Hg (Nov 26, 2:20 am)
Low18 °F (Nov 30, 2:20 am)28% (Nov 28, 12:20 pm)29.80 "Hg (Dec 2, 6:50 am)
Average32 °F83%30.28 "Hg
* Reported Nov 26 2:20 am — Dec 11 2:20 am, Hartberg, Weather by CustomWeather, © 2016

Note: Actual official high and low records may vary slightly from our data, if they occured in-between our weather recording intervals... More about our weather records

Advertising

Hartberg Weather History for the Previous 24 Hours

Scroll right to see more
 ConditionsComfort  
Time TempWeatherWind HumidityBarometerVisibility
2:20 am
Sun, Dec 11
27 °FPassing clouds.1 mph93%30.15 "Hg6 mi
1:50 am25 °FMixture of precip. Overcast.1 mph100%30.15 "Hg4 mi
1:20 am27 °FLight freezing rain. Overcast.1 mph93%30.15 "Hg4 mi
12:50 am27 °FChilly.1 mph93%30.15 "Hg5 mi
12:20 am27 °FMixture of precip. Overcast.1 mph93%30.15 "Hg5 mi
11:50 pm
Sat, Dec 10
27 °FChilly.1 mph93%30.18 "Hg5 mi
11:20 pm27 °FChilly.No wind93%30.18 "Hg2 mi
10:50 pm28 °FLight freezing rain. Overcast.1 mph93%30.18 "Hg3 mi
10:20 pm27 °FChilly.1 mph100%30.18 "Hg6 mi
9:50 pm27 °FChilly.1 mph93%30.18 "HgN/A
9:20 pm30 °FChilly.2 mph93%30.21 "HgN/A
8:50 pm30 °FChilly.1 mph93%30.21 "HgN/A
8:20 pm32 °FChilly.2 mph87%30.21 "HgN/A
7:50 pm30 °FChilly.1 mph93%30.21 "HgN/A
7:20 pm32 °FChilly.2 mph87%30.24 "HgN/A
6:50 pm32 °FClear.No wind87%30.24 "Hg10 mi
6:20 pm34 °FClear.2 mph81%30.24 "Hg10 mi
5:50 pm37 °FClear.1 mph75%30.24 "Hg10 mi
5:20 pm39 °FClear.1 mph70%30.24 "Hg10 mi
4:50 pm39 °FClear.1 mph61%30.24 "Hg10 mi
4:20 pm41 °FClear.1 mph61%30.24 "Hg10 mi
3:50 pm45 °FSunny.1 mph53%30.24 "Hg10 mi
3:20 pm50 °FSunny.2 mph47%30.24 "Hg10 mi
2:50 pm50 °FSunny.5 mph43%30.24 "Hg10 mi
2:20 pm50 °FPassing clouds.5 mph43%30.24 "HgN/A
1:50 pm50 °FSunny.6 mph47%30.24 "Hg10 mi
1:20 pm50 °FPassing clouds.3 mph50%30.27 "HgN/A
12:50 pm48 °FPassing clouds.3 mph54%30.27 "HgN/A
12:20 pm45 °FPassing clouds.3 mph61%30.27 "HgN/A
11:50 am43 °FSunny.5 mph66%30.30 "Hg10 mi
11:20 am43 °FSunny.2 mph53%30.30 "Hg10 mi
10:50 am41 °FSunny.1 mph70%30.30 "Hg10 mi
10:20 am36 °FSunny.1 mph93%30.33 "Hg10 mi
9:50 am34 °FSunny.No wind93%30.33 "Hg10 mi
9:20 am32 °FSunny.1 mph87%30.33 "Hg10 mi
8:50 am28 °FSunny.1 mph93%30.33 "Hg10 mi
8:20 am23 °FSunny.1 mph93%30.33 "Hg10 mi
7:50 am23 °FSunny.1 mph93%30.33 "Hg10 mi
7:20 am23 °FClear.1 mph93%30.33 "Hg10 mi
6:50 am21 °FClear.2 mph100%30.33 "Hg10 mi
6:20 am21 °FCold.2 mph93%30.33 "Hg5 mi
5:50 am21 °FLight freezing rain. Overcast.1 mph93%30.33 "Hg5 mi
5:20 am21 °FLight freezing rain. Overcast.2 mph100%30.33 "Hg5 mi
4:50 am21 °FCold.1 mph100%30.33 "Hg4 mi
4:20 am23 °FCold.1 mph93%30.33 "Hg4 mi
3:50 am23 °FLight freezing rain. Overcast.1 mph100%30.33 "Hg4 mi
3:20 am23 °FLight freezing rain. Overcast.1 mph93%30.33 "Hg2 mi
Weather by CustomWeather, © 2016

See weather overviewHow to use our weather pages